GSAT0202

Last updated on Sun May 29 2016 09:40:02 GMT+0000 (Coordinated Universal Time)

1 40129U 14050B 16150.01612624 -.00000062 00000-0 00000+0 0 9999 2 40129 50.1286 59.6096 1592709 51.0483 322.1027 1.85518933 12349

Satellite not in orbit

GSAT0202